Location: Bazinghen
(50.8246°N, 1.6616°E)
Time: 09:14:15
(UTC+00:00)

Cosmos 1741 Rocket - Pass Details

Date: 09 April 2020
Orbit: 762 x 782 km, 74.0° (Epoch: 01 June)

Event Time Altitude Azimuth Distance (km) Brightness Sun altitude
Exits shadow 21:21:09 14° 209° (SSW) 2,068 6.0 -22.5°
Maximum altitude 21:25:47 78° 295° (WNW) 806 4.1 -23.0°
Drops below altitude 10° 21:31:08 10° 22° (NNE) 2,348 6.8 -23.5°
Sets 21:33:32 0° 24° (NNE) 3,278 7.6 -23.7°
